Simultaneous Nadir Overpasses (SNOs) Predictions

Prediction of SNOs between AQUA and GOES-15 Satellite Orbit:

Table of predicted SNOs for the next 14.0 days since TLE Epoch: 9/22/2017
Index Date Time (AQUA) AQUA Lat,Lon GOES-15 Lat,Lon Distance(km) Time Diff (sec)
1 09/22/2017 22:34:42 -0.15,-134.83 -0.29,-135.35 59.55 80
2 09/24/2017 22:22:31 0.44,-131.87 -0.29,-135.37 397.73 80
3 09/25/2017 10:43:47 0.63,-137.03 0.28,-135.43 182.57 80
4 09/27/2017 10:31:37 -0.03,-134.09 0.28,-135.44 154.68 80
5 09/27/2017 22:53:01 -1.11,-139.27 -0.26,-135.39 442.56 80
6 09/29/2017 10:19:26 -0.63,-131.13 0.28,-135.45 491.27 80
7 09/29/2017 22:40:51 -0.45,-136.33 -0.26,-135.39 105.94 80
8 10/01/2017 22:28:40 0.16,-133.37 -0.26,-135.40 230.12 80
9 10/02/2017 10:49:56 0.90,-138.53 0.24,-135.46 349.28 80
10 10/04/2017 10:37:45 0.29,-135.57 0.24,-135.46 14.13 80
11 10/06/2017 10:25:34 -0.33,-132.62 0.24,-135.45 320.95 80




NCC Satellite Simultaneous Nadir Overpasses (SNOs) Prediction Service
